RYR32UX LEPA-LPPR

Flight info

Callsign RYR32UX
Flight time N/A
Altitude 35000
Route EPAMA N733 ARGOR/N0454F370 N733 ZMR L155 ADORO DCT INKIT
Aircraft B738/M-SDE2E3FGHIRWXY/LB1

Departure

Time N/A
Airport Palma de Mallorca Airport (LEPA)

Arrival

Time 2026-05-04 18:46
Airport Francisco de Sá Carneiro Airport (LPPR)
Time Latitude Longitude Altitude Speed Heading
2026-05-04 18:19 41.44786 -6.47461 31274 ft 371 kts 257°
2026-05-04 18:20 41.44172 -6.50779 30883 ft 367 kts 257°
2026-05-04 18:20 41.43567 -6.54070 30494 ft 364 kts 257°
2026-05-04 18:20 41.42975 -6.57292 30116 ft 361 kts 257°
2026-05-04 18:20 41.42425 -6.60284 29695 ft 358 kts 257°
2026-05-04 18:21 41.41843 -6.63450 29288 ft 353 kts 257°
2026-05-04 18:21 41.41262 -6.66611 28883 ft 348 kts 257°
2026-05-04 18:21 41.40687 -6.69731 28485 ft 345 kts 257°
2026-05-04 18:21 41.40149 -6.72652 28124 ft 341 kts 257°
2026-05-04 18:22 41.39635 -6.75436 27758 ft 338 kts 257°
2026-05-04 18:22 41.39085 -6.78409 27380 ft 334 kts 257°
2026-05-04 18:22 41.38530 -6.81402 26990 ft 332 kts 256°
2026-05-04 18:22 41.37980 -6.84369 26638 ft 328 kts 257°
2026-05-04 18:23 41.37433 -6.87315 26243 ft 326 kts 257°
2026-05-04 18:23 41.36896 -6.90196 25872 ft 324 kts 257°
2026-05-04 18:23 41.36355 -6.93098 25491 ft 321 kts 257°
2026-05-04 18:23 41.35818 -6.95972 25133 ft 319 kts 257°
2026-05-04 18:24 41.35285 -6.98824 24775 ft 317 kts 257°
2026-05-04 18:24 41.34768 -7.01586 24395 ft 315 kts 257°
2026-05-04 18:24 41.34238 -7.04409 24044 ft 314 kts 257°
2026-05-04 18:24 41.33711 -7.07218 23696 ft 312 kts 257°
2026-05-04 18:25 41.33185 -7.10016 23304 ft 311 kts 257°
2026-05-04 18:25 41.32661 -7.12796 22899 ft 309 kts 257°
2026-05-04 18:25 41.32142 -7.15548 22543 ft 305 kts 257°
2026-05-04 18:25 41.31627 -7.18271 22225 ft 302 kts 257°
2026-05-04 18:26 41.31117 -7.20972 21851 ft 300 kts 257°
2026-05-04 18:26 41.30610 -7.23647 21533 ft 297 kts 258°
2026-05-04 18:26 41.30104 -7.26314 21171 ft 296 kts 258°
2026-05-04 18:26 41.29601 -7.28966 20836 ft 293 kts 258°
2026-05-04 18:27 41.29103 -7.31585 20511 ft 291 kts 257°
2026-05-04 18:27 41.28611 -7.34165 20192 ft 290 kts 257°
2026-05-04 18:27 41.28116 -7.36763 19845 ft 289 kts 257°
2026-05-04 18:27 41.27622 -7.39352 19534 ft 288 kts 257°
2026-05-04 18:28 41.27131 -7.41920 19212 ft 285 kts 257°
2026-05-04 18:28 41.26644 -7.44464 18893 ft 284 kts 257°
2026-05-04 18:28 41.26157 -7.47003 18576 ft 283 kts 257°
2026-05-04 18:28 41.25670 -7.49543 18244 ft 283 kts 257°
2026-05-04 18:29 41.25183 -7.52079 17889 ft 282 kts 257°
2026-05-04 18:29 41.24697 -7.54605 17539 ft 281 kts 257°
2026-05-04 18:29 41.24215 -7.57107 17247 ft 278 kts 257°
2026-05-04 18:29 41.23739 -7.59573 16921 ft 280 kts 257°
2026-05-04 18:30 41.22763 -7.64628 16305 ft 290 kts 257°
2026-05-04 18:30 41.22257 -7.67246 15962 ft 293 kts 257°
2026-05-04 18:30 41.21751 -7.69853 15636 ft 291 kts 257°
2026-05-04 18:31 41.21245 -7.72454 15307 ft 290 kts 257°
2026-05-04 18:31 41.20742 -7.75038 14981 ft 289 kts 257°
2026-05-04 18:31 41.20241 -7.77618 14657 ft 288 kts 257°
2026-05-04 18:31 41.19740 -7.80193 14332 ft 287 kts 257°
2026-05-04 18:32 41.19240 -7.82757 14013 ft 286 kts 257°
2026-05-04 18:32 41.18747 -7.85276 13694 ft 285 kts 257°
2026-05-04 18:32 41.18250 -7.87814 13356 ft 282 kts 257°
2026-05-04 18:32 41.17684 -7.90293 13084 ft 280 kts 250°
2026-05-04 18:33 41.16904 -7.92651 12812 ft 278 kts 247°
2026-05-04 18:33 41.16076 -7.94961 12501 ft 277 kts 246°
2026-05-04 18:33 41.15247 -7.97255 12191 ft 274 kts 246°
2026-05-04 18:33 41.14429 -7.99534 11879 ft 273 kts 247°
2026-05-04 18:34 41.13654 -8.01720 11601 ft 270 kts 247°
2026-05-04 18:34 41.12858 -8.03980 11296 ft 270 kts 248°
2026-05-04 18:34 41.12067 -8.06237 10985 ft 270 kts 247°
2026-05-04 18:34 41.11280 -8.08490 10701 ft 268 kts 247°
2026-05-04 18:35 41.10496 -8.10734 10417 ft 267 kts 247°
2026-05-04 18:35 41.09732 -8.12922 10313 ft 258 kts 248°
2026-05-04 18:35 41.08988 -8.15048 10200 ft 250 kts 247°
2026-05-04 18:35 41.08266 -8.17118 10073 ft 244 kts 248°
2026-05-04 18:36 41.07554 -8.19161 9785 ft 244 kts 248°
2026-05-04 18:36 41.06843 -8.21200 9520 ft 243 kts 248°
2026-05-04 18:36 41.06147 -8.23190 9269 ft 241 kts 248°
2026-05-04 18:36 41.05443 -8.25206 9003 ft 240 kts 249°
2026-05-04 18:37 41.04742 -8.27209 8718 ft 239 kts 248°
2026-05-04 18:37 41.04044 -8.29200 8482 ft 239 kts 247°
2026-05-04 18:37 41.03337 -8.31219 8241 ft 243 kts 248°
2026-05-04 18:37 41.02677 -8.33303 7972 ft 248 kts 256°
2026-05-04 18:38 41.02320 -8.35563 7711 ft 253 kts 261°
2026-05-04 18:38 41.01980 -8.37856 7428 ft 255 kts 261°
2026-05-04 18:38 41.01622 -8.40153 7189 ft 253 kts 261°
2026-05-04 18:38 41.01267 -8.42416 7106 ft 248 kts 261°
2026-05-04 18:39 41.00915 -8.44615 6941 ft 242 kts 260°
2026-05-04 18:39 41.00549 -8.46893 6302 ft 258 kts 261°
2026-05-04 18:39 41.00181 -8.49214 5922 ft 257 kts 261°
2026-05-04 18:39 40.99837 -8.51526 5588 ft 253 kts 261°
2026-05-04 18:40 40.99504 -8.53783 5327 ft 246 kts 262°
2026-05-04 18:40 40.99178 -8.55974 5063 ft 240 kts 261°
2026-05-04 18:40 40.99004 -8.58127 4782 ft 230 kts 281°
2026-05-04 18:40 40.99580 -8.60028 4525 ft 221 kts 307°
2026-05-04 18:41 41.00668 -8.61416 4251 ft 216 kts 326°
2026-05-04 18:41 41.02018 -8.62150 4092 ft 211 kts 345°
2026-05-04 18:41 41.03474 -8.62541 4072 ft 217 kts 346°
2026-05-04 18:41 41.04945 -8.62933 3998 ft 214 kts 346°
2026-05-04 18:42 41.06407 -8.63320 3852 ft 215 kts 346°
2026-05-04 18:42 41.07892 -8.63707 3391 ft 222 kts 346°
2026-05-04 18:42 41.09391 -8.64096 3106 ft 213 kts 347°
2026-05-04 18:42 41.10841 -8.64472 2733 ft 208 kts 346°
2026-05-04 18:43 41.12221 -8.64831 2442 ft 197 kts 346°
2026-05-04 18:43 41.13095 -8.65057 2264 ft 188 kts 345°
2026-05-04 18:43 41.14341 -8.65382 2002 ft 176 kts 346°
2026-05-04 18:43 41.15508 -8.65685 1759 ft 166 kts 346°
2026-05-04 18:44 41.16591 -8.65968 1628 ft 148 kts 346°
2026-05-04 18:44 41.17261 -8.66144 1478 ft 149 kts 347°
2026-05-04 18:44 41.18591 -8.66494 1197 ft 141 kts 346°
2026-05-04 18:44 41.19577 -8.66765 979 ft 144 kts 345°
2026-05-04 18:45 41.20539 -8.67021 792 ft 142 kts 347°
2026-05-04 18:45 41.21492 -8.67246 660 ft 139 kts 346°
2026-05-04 18:45 41.22479 -8.67518 524 ft 147 kts 345°
2026-05-04 18:45 41.23480 -8.67774 302 ft 143 kts 346°
2026-05-04 18:46 41.24372 -8.68024 246 ft 119 kts 346°
2026-05-04 18:46 41.24962 -8.68166 225 ft 48 kts 349°
2026-05-04 18:46 41.25174 -8.68150 218 ft 27 kts 14°
2026-05-04 18:46 41.25303 -8.68064 212 ft 13 kts 81°
2026-05-04 18:47 41.25287 -8.68025 219 ft 0 kts 151°
2026-05-04 18:47 41.25272 -8.68015 211 ft 5 kts 157°
2026-05-04 18:48 41.25228 -8.68002 215 ft 7 kts 171°
2026-05-04 18:48 41.25181 -8.67992 214 ft 7 kts 171°
2026-05-04 18:48 41.25136 -8.67981 216 ft 7 kts 169°
2026-05-04 18:48 41.25092 -8.67970 221 ft 7 kts 169°
2026-05-04 18:49 41.25045 -8.67957 222 ft 7 kts 168°
2026-05-04 18:49 41.24973 -8.67938 225 ft 16 kts 171°
2026-05-04 18:49 41.24868 -8.67899 228 ft 16 kts 156°
2026-05-04 18:49 41.24771 -8.67836 232 ft 15 kts 157°
2026-05-04 18:50 41.24672 -8.67802 236 ft 15 kts 168°
2026-05-04 18:50 41.24575 -8.67776 238 ft 14 kts 168°
2026-05-04 18:50 41.24482 -8.67752 242 ft 13 kts 169°
2026-05-04 18:50 41.24394 -8.67730 243 ft 13 kts 169°
2026-05-04 18:51 41.24308 -8.67702 243 ft 12 kts 163°
2026-05-04 18:51 41.24252 -8.67617 244 ft 12 kts 130°
2026-05-04 18:51 41.24179 -8.67568 247 ft 12 kts 168°
2026-05-04 18:51 41.24099 -8.67547 249 ft 12 kts 169°
2026-05-04 18:52 41.24021 -8.67527 251 ft 11 kts 169°
2026-05-04 18:52 41.23945 -8.67508 254 ft 11 kts 169°
2026-05-04 18:52 41.23872 -8.67489 256 ft 11 kts 169°
2026-05-04 18:52 41.23801 -8.67471 256 ft 10 kts 169°
2026-05-04 18:53 41.23732 -8.67451 257 ft 10 kts 167°
2026-05-04 18:53 41.23664 -8.67432 258 ft 10 kts 169°
2026-05-04 18:53 41.23598 -8.67415 260 ft 10 kts 169°
2026-05-04 18:53 41.23540 -8.67383 261 ft 9 kts 126°
2026-05-04 18:54 41.23512 -8.67304 258 ft 10 kts 116°
2026-05-04 18:54 41.23504 -8.67283 257 ft 1 kts 115°
2026-05-04 18:54 41.23504 -8.67282 257 ft 0 kts 115°